Date String (YYYY-MM-DD hh:mm:ss) UTC,Instrument flags,Ambient pressure (hPa),Sample flow (lpm),Bypass flow (lpm),Sample temperature (°C),Ambient temperature (°C),ASC tube jacket temperature (°C),LED temperature (°C),Box temperature (°C),Sample RH (%),Span deviation,Mass concentration (μg/m³),Mass concentration (μg/m³),Mass concentration (μg/m³)
DateTimeUTC,F1_M11,P_M11,Q1_M11,Q2_M11,T1_M11,T2_M11,T3_M11,T4_M11,T5_M11,U1_M11,ZSPAN_M11,X0_M11,X2_M11,X1_M11
2022-01-24 16:00:00,,0823.3,5.00,0.00,23.1,22.4,00.0,32.1,24.9,10.5,0000.0,0007.62,0004.39,0004.01
2022-01-24 16:01:00,,0823.4,4.99,0.00,23.1,22.4,00.0,32.1,24.9,10.3,0000.0,0007.57,0004.35,0003.99
2022-01-24 16:02:00,,0823.4,5.01,0.00,23.1,22.4,00.0,32.1,24.9,10.2,0000.0,0008.21,0004.36,0003.99
2022-01-24 16:03:00,,0823.3,5.02,0.00,23.1,22.4,00.0,32.1,24.9,10.0,0000.0,0008.35,0004.35,0003.99
2022-01-24 16:04:00,,0823.3,5.00,0.00,23.1,22.4,00.0,32.1,24.9,10.2,0000.0,0008.24,0004.32,0003.97
2022-01-24 16:05:00,,0823.3,5.00,0.00,23.1,22.4,00.0,32.1,25.0,10.4,0000.0,0008.14,0004.32,0003.99
2022-01-24 16:06:00,,0823.4,5.00,0.00,23.2,22.4,00.0,32.1,25.0,10.2,0000.0,0007.80,0004.31,0004.01
2022-01-24 16:07:00,,0823.4,5.00,0.00,23.1,22.4,00.0,32.1,25.0,09.9,0000.0,0007.57,0004.27,0004.01
2022-01-24 16:08:00,,0823.4,4.99,0.00,23.1,22.5,00.0,32.1,24.9,10.4,0000.0,0007.45,0004.25,0004.03
2022-01-24 16:09:00,,0823.4,4.99,0.00,23.1,22.5,00.0,32.1,24.9,10.1,0000.0,0007.27,0004.24,0004.04
2022-01-24 16:10:00,,0823.4,5.00,0.00,23.1,22.4,00.0,32.1,24.9,09.9,0000.0,0007.24,0004.24,0004.05
2022-01-24 16:11:00,,0823.4,5.00,0.00,23.1,22.4,00.0,32.1,24.9,10.3,0000.0,0007.34,0004.25,0004.06
2022-01-24 16:12:00,,0823.4,5.00,0.00,23.1,22.4,00.0,32.1,24.9,11.0,0000.0,0007.35,0004.27,0004.08
2022-01-24 16:13:00,,0823.4,5.01,0.00,23.1,22.4,00.0,32.1,24.9,10.9,0000.0,0007.24,0004.29,0004.10
2022-01-24 16:14:00,,0823.3,5.00,0.00,23.1,22.4,00.0,32.1,24.9,10.7,0000.0,0007.01,0004.32,0004.13
2022-01-24 16:15:00,,0823.3,5.00,0.00,23.1,22.4,00.0,32.1,24.9,10.5,0000.0,0007.15,0004.33,0004.15
2022-01-24 16:16:00,,0823.4,5.00,0.00,23.2,22.5,00.0,32.1,24.9,10.5,0000.0,0007.52,0004.35,0004.16
2022-01-24 16:17:00,,0823.3,4.99,0.00,23.1,22.5,00.0,32.1,25.0,10.5,0000.0,0007.75,0004.41,0004.17
2022-01-24 16:18:00,,0823.4,5.02,0.00,23.1,22.5,00.0,32.1,24.9,10.7,0000.0,0007.85,0004.46,0004.19
2022-01-24 16:19:00,,0823.3,4.99,0.00,23.1,22.5,00.0,32.1,24.9,10.4,0000.0,0007.85,0004.47,0004.20
2022-01-24 16:20:00,,0823.3,5.00,0.00,23.1,22.5,00.0,32.1,24.9,10.8,0000.0,0007.95,0004.50,0004.20
2022-01-24 16:21:00,,0823.4,5.00,0.00,23.2,22.5,00.0,32.1,25.0,10.8,0000.0,0008.07,0004.53,0004.20
2022-01-24 16:22:00,,0823.4,5.00,0.00,23.2,22.5,00.0,32.1,25.0,10.4,0000.0,0008.14,0004.54,0004.19
2022-01-24 16:23:00,,0823.3,5.01,0.00,23.2,22.5,00.0,32.1,24.9,09.7,0000.0,0008.11,0004.48,0004.13
2022-01-24 16:24:00,,0823.4,4.99,0.00,23.1,22.5,00.0,32.1,24.9,09.5,0000.0,0007.63,0004.41,0004.06
2022-01-24 16:25:00,,0823.3,5.01,0.00,23.1,22.4,00.0,32.1,24.9,10.0,0000.0,0007.47,0004.35,0003.99
2022-01-24 16:26:00,,0823.3,4.99,0.00,23.1,22.4,00.0,32.1,24.8,10.0,0000.0,0007.44,0004.32,0003.95
2022-01-24 16:27:00,,0823.4,5.00,0.00,23.1,22.4,00.0,32.1,24.8,09.8,0000.0,0007.00,0004.26,0003.90
2022-01-24 16:28:00,,0823.4,5.01,0.00,23.1,22.4,00.0,32.1,24.8,09.9,0000.0,0006.74,0004.20,0003.84
2022-01-24 16:29:00,,0823.4,4.99,0.00,23.1,22.4,00.0,32.1,24.8,10.0,0000.0,0006.67,0004.13,0003.79
2022-01-24 16:30:00,,0823.4,4.99,0.00,23.0,22.4,00.0,32.1,24.8,09.9,0000.0,0006.70,0004.08,0003.74
2022-01-24 16:31:00,,0823.3,5.00,0.00,23.0,22.3,00.0,32.1,24.7,09.5,0000.0,0006.53,0004.02,0003.68
2022-01-24 16:32:00,,0823.4,5.00,0.00,23.0,22.3,00.0,32.0,24.7,09.5,0000.0,0006.46,0003.99,0003.62
2022-01-24 16:33:00,,0823.4,5.00,0.00,22.9,22.2,00.0,32.0,24.6,09.6,0000.0,0006.35,0003.95,0003.59
2022-01-24 16:34:00,,0823.4,5.00,0.00,22.9,22.2,00.0,32.0,24.5,09.8,0000.0,0006.44,0003.96,0003.59
2022-01-24 16:35:00,,0823.4,4.99,0.00,22.9,22.2,00.0,32.0,24.5,10.0,0000.0,0007.01,0003.99,0003.61
2022-01-24 16:36:00,,0823.4,4.99,0.00,22.8,22.2,00.0,32.0,24.5,09.9,0000.0,0007.52,0004.00,0003.62
2022-01-24 16:37:00,,0823.3,5.00,0.00,22.8,22.2,00.0,32.0,24.5,09.9,0000.0,0007.47,0003.98,0003.60
2022-01-24 16:38:00,,0823.3,5.00,0.00,22.8,22.2,00.0,31.9,24.5,10.1,0000.0,0007.63,0003.97,0003.61
2022-01-24 16:39:00,,0823.3,5.00,0.00,22.8,22.1,00.0,31.9,24.5,10.7,0000.0,0008.00,0004.00,0003.63
2022-01-24 16:40:00,,0823.5,5.02,0.00,22.8,22.1,00.0,31.9,24.5,11.2,0000.0,0008.04,0004.05,0003.66
2022-01-24 16:41:00,,0823.4,4.99,0.00,22.8,22.1,00.0,31.9,24.5,10.9,0000.0,0008.03,0004.08,0003.70
2022-01-24 16:42:00,,0823.3,5.00,0.00,22.8,22.1,00.0,31.9,24.4,10.5,0000.0,0008.17,0004.13,0003.74
2022-01-24 16:43:00,,0823.4,5.00,0.00,22.8,22.1,00.0,31.9,24.5,10.6,0000.0,0008.13,0004.12,0003.77
2022-01-24 16:44:00,,0823.4,5.01,0.00,22.7,22.1,00.0,31.9,24.5,10.5,0000.0,0008.05,0004.12,0003.79
2022-01-24 16:45:00,,0823.4,5.00,0.00,22.7,22.1,00.0,31.8,24.4,10.4,0000.0,0008.05,0004.15,0003.81
2022-01-24 16:46:00,,0823.3,5.00,0.00,22.7,22.1,00.0,31.8,24.4,10.5,0000.0,0007.80,0004.14,0003.82
2022-01-24 16:47:00,,0823.4,5.00,0.00,22.7,22.1,00.0,31.8,24.4,10.6,0000.0,0007.38,0004.15,0003.82
2022-01-24 16:48:00,,0823.4,5.00,0.00,22.7,22.0,00.0,31.8,24.4,10.1,0000.0,0007.37,0004.13,0003.80
2022-01-24 16:49:00,,0823.4,4.99,0.00,22.7,22.0,00.0,31.8,24.3,10.6,0000.0,0008.02,0004.15,0003.79
2022-01-24 16:50:00,,0823.4,5.01,0.00,22.6,21.9,00.0,31.8,24.3,10.6,0000.0,0008.47,0004.12,0003.78
2022-01-24 16:51:00,,0823.4,5.00,0.00,22.6,21.9,00.0,31.7,24.3,10.3,0000.0,0008.98,0004.07,0003.73
2022-01-24 16:52:00,,0823.4,4.99,0.00,22.6,21.8,00.0,31.7,24.2,10.9,0000.0,0008.91,0004.03,0003.69
2022-01-24 16:53:00,,0823.4,4.99,0.00,22.6,21.8,00.0,31.7,24.2,11.4,0000.0,0008.90,0004.08,0003.71
2022-01-24 16:54:00,,0823.4,5.01,0.00,22.6,21.8,00.0,31.7,24.2,11.3,0000.0,0009.07,0004.12,0003.73
2022-01-24 16:55:00,,0823.5,5.00,0.00,22.5,21.8,00.0,31.7,24.2,11.6,0000.0,0009.84,0004.19,0003.76
2022-01-24 16:56:00,,0823.4,5.00,0.00,22.5,21.8,00.0,31.7,24.2,11.3,0000.0,0010.29,0004.24,0003.78
2022-01-24 16:57:00,,0823.5,5.01,0.00,22.5,21.8,00.0,31.7,24.2,10.8,0000.0,0010.51,0004.25,0003.78
2022-01-24 16:58:00,,0823.4,5.00,0.00,22.5,21.8,00.0,31.6,24.2,10.8,0000.0,0011.00,0004.26,0003.77
2022-01-24 16:59:00,,0823.5,5.00,0.00,22.5,21.8,00.0,31.6,24.2,10.8,0000.0,0011.07,0004.28,0003.79
